Change the Weather History Date:

Monday, November 4, 2013

  Actual Average Record
Temperature  
Mean Temperature 51 °F -  
Max Temperature 55 °F - - ()
Min Temperature 47 °F - - ()
Degree Days  
Heating Degree Days 14    
Growing Degree Days 1 (Base 50)    
Moisture  
Dew Point 44 °F    
Average Humidity 75    
Maximum Humidity 94    
Minimum Humidity 49    
Precipitation  
Precipitation 0.00 in 0.07 in - ()
Sea Level Pressure  
Sea Level Pressure 29.76 in    
Wind  
Wind Speed 9 mph ()    
Max Wind Speed 18 mph    
Max Gust Speed -    
Visibility 6.6 miles    
Events Rain    
T = Trace of Precipitation, MM = Missing Value Source: Averaged Metar Reports

Daily Weather History Graph

Daily Weather History Graph

Search for Another Location

Airport or City:

Trip Planner

Search our weather history database for the weather conditions in past years. The results will help you decide how hot, cold, wet, or windy it might be!

Date:

Astronomy

Nov. 04, 2013 Rise Set
Actual Time 6:53 AM EET 4:28 PM EET
Civil Twilight 6:19 AM EET 5:03 PM EET
Nautical Twilight 5:40 AM EET 5:42 PM EET
Astronomical Twilight 5:02 AM EET 6:20 PM EET
Moon 7:47 AM EET 5:09 PM EET
Length of Visible Light 10h 44m
Length of Day
9h 35m
New Moon, 1% of the Moon is Illuminated
Nov 4
New Moon
Nov 10
First Quarter
Nov 17
Full
Nov 25
Last Quarter
Dec 3
New

Hourly Weather History & Observations

Time (EET) Temp. Dew Point Humidity Pressure Visibility Wind Dir Wind Speed Gust Speed Precip Events Conditions
12:00 AM 55.4 °F 48.2 °F 77% 29.68 in 5.6 mi South 8.9 mph - N/A   Unknown
12:30 AM 55.4 °F 48.2 °F 77% 29.68 in 5.6 mi South 8.9 mph - N/A   Unknown
1:00 AM 53.6 °F 48.2 °F 82% 29.65 in 5.6 mi SSE 8.9 mph - N/A   Unknown
1:30 AM 53.6 °F 48.2 °F 82% 29.65 in 5.6 mi South 8.9 mph - N/A   Unknown
2:00 AM 53.6 °F 48.2 °F 82% 29.65 in 5.0 mi South 8.9 mph - N/A   Unknown
2:30 AM 53.6 °F 48.2 °F 82% 29.62 in 5.0 mi South 8.9 mph - N/A   Unknown
3:00 AM 53.6 °F 48.2 °F 82% 29.62 in 5.0 mi South 8.9 mph - N/A   Unknown
3:30 AM 53.6 °F 48.2 °F 82% 29.62 in 5.0 mi South 8.9 mph - N/A   Unknown
4:00 AM 53.6 °F 48.2 °F 82% 29.62 in 5.0 mi South 8.9 mph - N/A   Unknown
4:30 AM 55.4 °F 48.2 °F 77% 29.62 in 5.0 mi SSW 8.9 mph - N/A   Unknown
5:00 AM 54 °F 47 °F 72% 29.64 in 6 mi South 11.2 mph - - Rain Light Rain
5:00 AM 53.6 °F 48.2 °F 82% 29.62 in 5.0 mi SSW 11.2 mph - N/A   Mostly Cloudy
5:30 AM 53.6 °F 48.2 °F 82% 29.62 in 4.3 mi SSW 13.4 mph - N/A   Mostly Cloudy
6:00 AM 53.6 °F 50.0 °F 88% 29.65 in 3.7 mi SW 11.2 mph - N/A Rain Light Rain Showers
6:30 AM 51.8 °F 50.0 °F 94% 29.68 in 6.2 mi West 15.7 mph - N/A   Mostly Cloudy
7:00 AM 51.8 °F 50.0 °F 94% 29.71 in 6.2 mi West 17.9 mph - N/A Rain Light Rain Showers
7:30 AM 51.8 °F 48.2 °F 88% 29.71 in 6.2 mi West 11.2 mph - N/A   Mostly Cloudy
8:00 AM 52 °F 48 °F 81% 29.74 in 12 mi WNW 6.7 mph - -   Partly Cloudy
8:00 AM 51.8 °F 48.2 °F 88% 29.74 in 6.2 mi West 13.4 mph - N/A   Mostly Cloudy
8:30 AM 51.8 °F 48.2 °F 88% 29.74 in 6.2 mi West 8.9 mph - N/A   Mostly Cloudy
9:00 AM 51.8 °F 48.2 °F 88% 29.77 in 6.2 mi West 17.9 mph - N/A   Mostly Cloudy
9:30 AM 51.8 °F 46.4 °F 82% 29.77 in 6.2 mi West 15.7 mph - N/A   Scattered Clouds
10:00 AM 51.8 °F 42.8 °F 71% 29.80 in 6.2 mi WNW 15.7 mph - N/A   Scattered Clouds
10:30 AM 51.8 °F 42.8 °F 71% 29.80 in 6.2 mi WNW 11.2 mph - N/A   Mostly Cloudy
11:00 AM 53 °F 42 °F 56% 29.82 in 12 mi WNW 6.7 mph - -   Mostly Cloudy
11:00 AM 51.8 °F 44.6 °F 76% 29.80 in 6.2 mi West 13.4 mph - N/A   Mostly Cloudy
11:30 AM 53.6 °F 44.6 °F 72% 29.80 in 6.2 mi West 11.2 mph - N/A   Mostly Cloudy
12:00 PM 53.6 °F 42.8 °F 67% 29.83 in 6.2 mi West 15.7 mph - N/A   Mostly Cloudy
12:30 PM 53.6 °F 42.8 °F 67% 29.83 in 6.2 mi West 13.4 mph - N/A   Mostly Cloudy
1:00 PM 53.6 °F 42.8 °F 67% 29.83 in 6.2 mi WNW 11.2 mph - N/A   Mostly Cloudy
1:30 PM 53.6 °F 42.8 °F 67% 29.80 in 6.2 mi WNW 8.9 mph - N/A   Mostly Cloudy
2:00 PM 54 °F 40 °F 49% 29.84 in 12 mi West 6.7 mph - -   Partly Cloudy
2:00 PM 55.4 °F 42.8 °F 63% 29.83 in 6.2 mi WNW 8.9 mph - N/A   Mostly Cloudy
2:30 PM 53.6 °F 42.8 °F 67% 29.83 in 6.2 mi West 11.2 mph - N/A   Mostly Cloudy
3:00 PM 53.6 °F 41.0 °F 62% 29.83 in 6.2 mi West 6.7 mph - N/A   Mostly Cloudy
3:30 PM 51.8 °F 41.0 °F 67% 29.83 in 6.2 mi WSW 6.7 mph - N/A   Scattered Clouds
4:00 PM 51.8 °F 41.0 °F 67% 29.83 in 6.2 mi WSW 4.5 mph - N/A   Scattered Clouds
4:30 PM 48.2 °F 41.0 °F 76% 29.83 in - Calm Calm - N/A   Clear
5:00 PM 49 °F 40 °F 64% 29.85 in 12 mi South 2.2 mph - -   Scattered Clouds
5:00 PM 48.2 °F 41.0 °F 76% 29.83 in 5.0 mi South 4.5 mph - N/A   Unknown
5:30 PM 48.2 °F 41.0 °F 76% 29.83 in - South 4.5 mph - N/A   Smoke
6:00 PM 48.2 °F 41.0 °F 76% 29.83 in 5.6 mi South 4.5 mph - N/A   Unknown
6:30 PM 50.0 °F 41.0 °F 71% 29.83 in - South 4.5 mph - N/A   Clear
7:00 PM 50.0 °F 41.0 °F 71% 29.83 in - South 8.9 mph - N/A   Clear
7:30 PM 50.0 °F 41.0 °F 71% 29.83 in - South 8.9 mph - N/A   Clear
8:00 PM 49 °F 41 °F 65% 29.85 in 12 mi South 4.5 mph - -   Mostly Cloudy
8:00 PM 48.2 °F 41.0 °F 76% 29.83 in - South 8.9 mph - N/A   Clear
8:30 PM 48.2 °F 41.0 °F 76% 29.83 in - South 8.9 mph - N/A   Clear
9:00 PM 48.2 °F 41.0 °F 76% 29.83 in - SSW 8.9 mph - N/A   Clear
9:30 PM 48.2 °F 41.0 °F 76% 29.83 in - SSW 8.9 mph - N/A   Clear
10:00 PM 48.2 °F 41.0 °F 76% 29.80 in - South 8.9 mph - N/A   Clear
10:30 PM 48.2 °F 41.0 °F 76% 29.80 in - South 6.7 mph - N/A   Clear
11:00 PM 47 °F 40 °F 71% 29.82 in 12 mi SSE 4.5 mph - -   Mostly Cloudy
11:00 PM 50.0 °F 41.0 °F 71% 29.80 in - SSE 6.7 mph - N/A   Clear
11:30 PM 50.0 °F 41.0 °F 71% 29.77 in - SE 6.7 mph - N/A   Clear